PD0HRY-12 Weather Reports


time (UTC)temp
C
wind
direction
speed
KPH
gust
KPH
rain 1hr
cm
rain 24hr
cm
rain mn
cm
humidity
%
barometer
mb
20260502213001 17 55 0.0 0.0 0.00 0.00 0.00 76 1006.0
20260502210004 17 68 0.0 0.0 0.00 0.00 0.00 75 1006.0
20260502203002 18 95 0.0 0.0 0.00 0.00 0.00 71 1007.0
20260502200001 20 71 0.0 0.0 0.00 0.00 0.00 62 1007.0
20260502193004 21 55 0.0 0.0 0.00 0.00 0.00 60 1007.0
20260502190002 21 350 0.0 0.0 0.00 0.00 0.00 59 1006.0
20260502183001 22 17 0.0 0.0 0.00 0.00 0.00 56 1006.0
20260502163004 24 255 0.0 0.0 0.00 0.00 0.00 49 1007.0
20260502123000 22 234 0.0 0.0 0.00 0.00 0.00 52 1010.0
20260502113002 22 264 0.0 0.0 0.00 0.00 0.00 52 1010.0
20260502110000 22 237 0.0 0.0 0.00 0.00 0.00 52 1010.0
20260502103003 22 262 0.0 0.0 0.00 0.00 0.00 52 1011.0
20260502070002 16 241 0.0 0.0 0.00 0.00 0.00 50 1011.0
20260502063000 16 106 0.0 0.0 0.00 0.00 0.00 50 1011.0
20260502060004 14 128 0.0 0.0 0.00 0.00 0.00 54 1011.0
20260502053002 13 80 0.0 0.0 0.00 0.00 0.00 56 1011.0
20260502050000 12 88 0.0 0.0 0.00 0.00 0.00 59 1011.0
20260502043004 10 97 0.0 0.0 0.00 0.00 0.00 68 1011.0
20260502040002 10 98 0.0 0.0 0.00 0.00 0.00 69 1011.0
20260502033000 10 98 0.0 0.0 0.00 0.00 0.00 70 1012.0
20260502030004 10 98 0.0 0.0 0.00 0.00 0.00 68 1012.0
20260502023002 10 97 0.0 0.0 0.00 0.00 0.00 68 1012.0
20260502020000 11 97 0.0 0.0 0.00 0.00 0.00 68 1012.0
20260502013004 11 98 0.0 0.0 0.00 0.00 0.00 69 1012.0
20260502010002 11 99 0.0 0.0 0.00 0.00 0.00 68 1012.0
20260502003000 12 100 0.0 0.0 0.00 0.00 0.00 62 1013.0
20260502000004 12 99 0.0 0.0 0.00 0.00 0.00 60 1013.0
20260501233002 13 100 0.0 0.0 0.00 0.00 0.00 55 1013.0
20260501230000 15 100 0.0 0.0 0.00 0.00 0.00 47 1013.0
20260501223004 15 101 0.0 0.0 0.00 0.00 0.00 45 1013.0
20260501220002 16 107 0.0 0.0 0.00 0.00 0.00 46 1013.0